Regional Weather Roundup
Issued by NWS

Home | Current Version | Previous Version | Graphics & Text | Print | Product List | Glossary On
Versions: 1 2 3 4 5 6 7 8 9 10 11 12 13 14 15 16 17 18 19 20 21 22 23 24 25 26 27 28 29 30 31 32 33 34 35 36 37 38 39 40 41 42 43 44 45 46 47 48 49 50
000
ASUS43 KOAX 210702
RWRNE

WEATHER ROUNDUP FOR NEBRASKA
NATIONAL WEATHER SERVICE OMAHA NE
200 AM CDT THU SEP 21 2017

NOTES: SATELLITE DATA IS BEING USED TO AUGMENT CLOUD COVER ABOVE
       12000 FEET.
       "FAIR" INDICATES FEW OR NO CLOUDS BELOW 12,000 FEET WITH NO
       SIGNIFICANT WEATHER AND/OR OBSTRUCTIONS TO VISIBILITY.


NEZ001>004-019>022-054>056-210800-
NEBRASKA PANHANDLE

CITY           SKY/WX    TMP DP  RH WIND       PRES   REMARKS
SCOTTSBLUFF    CLEAR     58  35  42 E15       29.79F
ALLIANCE       CLEAR     56  35  45 S17       29.81F
CHADRON        CLEAR     66  32  28 S30G41    29.72F
GORDON         FAIR      61  35  38 S12G18    29.81F
KIMBALL        CLEAR     55  33  44 S12       29.84F
SIDNEY         CLEAR     57  33  40 S15       29.85F
$$

NEZ057>060-069>072-079>082-210800-
SOUTHWEST NEBRASKA

CITY           SKY/WX    TMP DP  RH WIND       PRES   REMARKS
NORTH PLATTE   CLEAR     47  44  90 E8        29.88F
IMPERIAL       CLEAR     53  38  56 SE12      29.85F
LEXINGTON      CLEAR     50  44  79 CALM      29.89S
MCCOOK         CLEAR     52  41  66 E5        29.86F
OGALLALA       CLEAR     53  38  58 E3        29.86F
$$

NEZ005>010-023>029-035>040-094-210800-
NORTH CENTRAL NEBRASKA

CITY           SKY/WX    TMP DP  RH WIND       PRES   REMARKS
VALENTINE      CLEAR     54  43  66 E6        29.84F
AINSWORTH      CLEAR     55  45  69 S9        29.86F
BROKEN BOW     CLEAR     47  41  80 CALM      29.89S
O`NEILL        CLEAR     53  47  78 SE6       29.89S
ORD            CLEAR     47  43  86 CALM      29.88S
THEDFORD       CLEAR     56  43  61 SE10      29.87F
$$

NEZ041-046>049-061>064-073>077-083>087-210800-
SOUTH CENTRAL NEBRASKA

CITY           SKY/WX    TMP DP  RH WIND       PRES   REMARKS
GRAND ISLAND   CLEAR     58  52  80 E7        29.89S
AURORA         CLEAR     54  51  90 E5        29.89S
HASTINGS       CLEAR     58  50  75 E6        29.89S
HEBRON         PTCLDY    64  55  72 CALM      29.87S
HOLDREGE       CLEAR     54  46  74 SE6       29.89R
KEARNEY        CLEAR     53  47  79 E5        29.89S
YORK           CLEAR     59  50  72 E6        29.89S
$$

NEZ011>018-030>034-042>045-210800-
NORTHEAST NEBRASKA

CITY           SKY/WX    TMP DP  RH WIND       PRES   REMARKS
NORFOLK        CLEAR     55  49  80 SE7       29.89F
ALBION         CLEAR     49  49  97 CALM      29.90S
BLAIR          CLEAR     61  54  77 NE8       29.90S
COLUMBUS       CLEAR     52  49  89 NE5       29.90S
FREMONT        CLEAR     58  53  81 CALM      29.90S
TEKAMAH        CLEAR     54  51  90 N6        29.90S
WAYNE          CLEAR     46  44  92 CALM      29.91S
$$

NEZ050>053-065>068-078-088>093-210800-
SOUTHEAST NEBRASKA

CITY           SKY/WX    TMP DP  RH WIND       PRES   REMARKS
LINCOLN        PTCLDY    61  53  75 N6        29.89S
OMAHA EPPLEY   PTCLDY    61  54  77 N6        29.90R
BEATRICE       PTCLDY    69  56  64 E10       29.87S
FALLS CITY     PTCLDY    70  63  78 NE3       29.86S
NEBRASKA CITY  PTCLDY    65  59  78 E6        29.88S
PLATTSMOUTH    MOCLDY    66  56  69 NE7       29.89S
$$

NEZ044-045-051>053-067-210800-
OMAHA AREA

CITY           SKY/WX    TMP DP  RH WIND       PRES   REMARKS
OMAHA EPPLEY   PTCLDY    61  54  77 N6        29.90R
BLAIR          CLEAR     61  54  77 NE8       29.90S
FREMONT        CLEAR     58  53  81 CALM      29.90S
MILLARD        CLEAR     64  56  77 CALM      29.90R
OFFUTT AFB     CLEAR     65  54  67 NE5       29.88S
PLATTSMOUTH    MOCLDY    66  56  69 NE7       29.89S
WAHOO          FAIR      57  54  91 CALM      29.90R
$$



USA.gov is the U.S. government's official web portal to all federal, state and local government web resources and services.